Location: Harwich
(41.7160°N, 69.9939°W)
Time: 12:23:08
(UTC+02:00)

STRAND 1 - Visible Passes

Search period start: 16 September 2024 00:00
Search period end: 26 September 2024 00:00
Orbit: 764 x 777 km, 98.4° (Epoch: 15 September)

Date Brightness Start Highest point End Pass type
(mag) Time Alt. Az. Time Alt. Az. Time Alt. Az.
16 Sep ? 02:15:18 10° NNW 02:19:14 23° WNW 02:23:09 10° WSW visible
16 Sep ? 11:50:53 10° SSE 11:55:54 65° ENE 12:00:58 10° N visible
17 Sep ? 01:39:30 10° N 01:44:23 45° WNW 01:49:15 10° SW visible
17 Sep ? 11:16:31 10° SE 11:20:57 31° ENE 11:25:25 10° N visible
18 Sep ? 01:04:10 10° NNE 01:09:20 87° ESE 01:14:29 10° SSW visible
18 Sep ? 02:45:30 10° NNW 02:47:42 13° WNW 02:49:54 10° W visible
18 Sep ? 10:43:11 10° E 10:46:11 16° ENE 10:49:11 10° NNE visible
19 Sep ? 02:08:50 10° NNW 02:13:00 25° WNW 02:17:08 10° WSW visible
19 Sep ? 11:44:39 10° SSE 11:49:36 57° ENE 11:54:37 10° N visible
20 Sep ? 01:33:07 10° N 01:38:06 51° WNW 01:43:03 10° SW visible
20 Sep ? 11:10:25 10° ESE 11:14:41 28° ENE 11:18:59 10° N visible
21 Sep ? 00:57:52 10° NNE 01:03:01 76° ESE 01:08:09 10° S visible
21 Sep ? 02:38:45 10° NNW 02:41:28 15° WNW 02:44:11 10° W visible
21 Sep ? 10:37:22 10° E 10:39:57 14° ENE 10:42:32 10° NNE visible
22 Sep ? 02:02:22 10° N 02:06:43 29° WNW 02:11:04 10° SW visible
22 Sep ? 11:38:24 10° SE 11:43:18 50° ENE 11:48:14 10° N visible
23 Sep ? 01:26:44 10° N 01:31:47 58° WNW 01:36:49 10° SSW visible
23 Sep ? 11:04:20 10° ESE 11:08:24 25° ENE 11:12:29 10° NNE visible
24 Sep ? 02:32:05 10° NNW 02:35:13 16° WNW 02:38:20 10° W visible
24 Sep ? 10:31:38 10° E 10:33:41 12° ENE 10:35:44 10° NE visible
25 Sep ? 01:55:53 10° N 02:00:25 32° WNW 02:04:56 10° SW visible
25 Sep ? 11:32:10 10° SE 11:36:58 44° ENE 11:41:48 10° N visible
